FW6592 Weather Reports


time (UTC)temp
F
wind
direction
speed
knots
gust
knots
rain 1hr
in
rain 24hr
in
rain mn
in
humidity
%
barometer
mb
20260505195839 80 256 6.1 8.7 0.00 0.00 0.00 46 1015.3
20260505195337 80 258 2.6 6.1 0.00 0.00 0.00 46 1015.1
20260505194834 80 219 4.3 6.1 0.00 0.00 0.00 46 1015.0
20260505194331 80 73 4.3 6.1 0.00 0.00 0.00 45 1015.6
20260505193826 80 30 2.6 13.0 0.00 0.00 0.00 45 1015.6
20260505193324 79 310 4.3 7.0 0.00 0.00 0.00 47 1015.9
20260505192822 80 301 5.2 8.7 0.00 0.00 0.00 46 1015.9
20260505192320 80 247 2.6 12.2 0.00 0.00 0.00 46 1015.9
20260505191817 78 275 4.3 6.1 0.00 0.00 0.00 48 1015.8
20260505191316 81 324 7.8 9.6 0.00 0.00 0.00 46 1016.0
20260505190812 80 337 4.3 7.8 0.00 0.00 0.00 46 1015.9
20260505190308 80 4 1.7 8.7 0.00 0.00 0.00 47 1016.2
20260505185804 79 258 7.8 8.7 0.00 0.00 0.00 47 1016.2
20260505185300 79 221 2.6 6.1 0.00 0.00 0.00 49 1016.1
20260505184756 78 258 5.2 7.8 0.00 0.00 0.00 48 1016.2
20260505184254 78 247 5.2 8.7 0.00 0.00 0.00 48 1016.2
20260505183751 78 227 5.2 8.7 0.00 0.00 0.00 48 1016.4
20260505183248 79 318 1.7 6.1 0.00 0.00 0.00 49 1016.5
20260505182744 79 294 6.1 7.0 0.00 0.00 0.00 46 1016.4
20260505182241 79 296 7.0 11.3 0.00 0.00 0.00 47 1016.5
20260505181737 78 272 2.6 6.1 0.00 0.00 0.00 49 1016.4
20260505181235 79 321 4.3 6.1 0.00 0.00 0.00 47 1016.5
20260505180731 78 280 4.3 6.1 0.00 0.00 0.00 47 1016.5
20260505180228 78 184 5.2 9.6 0.00 0.00 0.00 48 1016.4
20260505175724 78 281 6.1 9.6 0.00 0.00 0.00 48 1016.6
20260505175221 79 45 2.6 5.2 0.00 0.00 0.00 48 1016.6
20260505174717 78 275 2.6 6.1 0.00 0.00 0.00 49 1016.9
20260505174214 78 236 5.2 5.2 0.00 0.00 0.00 49 1016.6
20260505173710 78 53 4.3 7.0 0.00 0.00 0.00 48 1016.6
20260505173207 78 245 4.3 6.1 0.00 0.00 0.00 48 1016.7
20260505172704 78 291 5.2 9.6 0.00 0.00 0.00 49 1016.8
20260505172201 78 277 7.0 9.6 0.00 0.00 0.00 48 1016.8
20260505171701 78 239 8.7 11.3 0.00 0.00 0.00 49 1016.8
20260505171158 77 301 2.6 7.8 0.00 0.00 0.00 52 1016.7
20260505170655 77 255 6.1 12.2 0.00 0.00 0.00 52 1016.9
20260505170152 77 357 4.3 7.0 0.00 0.00 0.00 51 1017.0
20260505165652 77 11 3.5 7.0 0.00 0.00 0.00 51 1017.1
20260505165148 76 270 6.1 7.8 0.00 0.00 0.00 52 1017.0
20260505164644 77 293 6.1 8.7 0.00 0.00 0.00 53 1017.2
20260505164142 77 335 4.3 8.7 0.00 0.00 0.00 53 1017.1
20260505163640 77 297 6.1 12.2 0.00 0.00 0.00 54 1017.3
20260505163137 77 0 7.0 8.7 0.00 0.00 0.00 55 1017.6
20260505162634 76 263 7.0 7.8 0.00 0.00 0.00 54 1017.4
20260505162132 76 317 4.3 13.0 0.00 0.00 0.00 53 1017.5
20260505161629 75 327 3.5 6.1 0.00 0.00 0.00 55 1017.4
20260505161126 75 333 6.1 8.7 0.00 0.00 0.00 54 1017.7
20260505160624 75 132 3.5 6.1 0.00 0.00 0.00 54 1017.5
20260505160121 75 284 6.1 8.7 0.00 0.00 0.00 57 1017.7
20260505153101 75 258 6.1 7.8 0.00 0.00 0.00 58 1017.9
20260505152557 74 346 6.1 7.0 0.00 0.00 0.00 59 1017.8
20260505152053 74 291 5.2 7.0 0.00 0.00 0.00 59 1017.9
20260505151548 73 293 1.7 5.2 0.00 0.00 0.00 61 1018.0
20260505151046 73 318 6.1 7.8 0.00 0.00 0.00 60 1017.9
20260505150542 73 284 2.6 6.1 0.00 0.00 0.00 62 1018.0
20260505140507 69 31 4.3 8.7 0.00 0.00 0.00 68 1018.1
20260505124920 63 97 2.6 4.3 0.00 0.00 0.00 78 1017.9
20260505124417 63 349 3.5 7.0 0.00 0.00 0.00 79 1017.8
20260505123914 62 93 0.9 5.2 0.00 0.00 0.00 79 1018.0
20260505123410 62 154 1.7 4.3 0.00 0.00 0.00 79 1017.7
20260505122906 61 220 3.5 4.3 0.00 0.00 0.00 80 1017.8
20260505122404 60 182 1.7 6.1 0.00 0.00 0.00 82 1017.9
20260505121900 60 231 2.6 5.2 0.00 0.00 0.00 82 1017.7
20260505121357 59 277 2.6 5.2 0.00 0.00 0.00 83 1017.8
20260505120853 59 279 3.5 4.3 0.00 0.00 0.00 83 1017.9
20260505120349 59 190 1.7 2.6 0.00 0.00 0.00 83 1017.9
20260505115848 58 139 0.0 2.6 0.00 0.00 0.00 84 1017.9
20260505115345 58 78 0.9 2.6 0.00 0.00 0.00 84 1017.9
20260505114843 57 143 0.0 1.7 0.00 0.00 0.00 86 1017.8
20260505114340 56 296 0.0 0.9 0.00 0.00 0.00 88 1017.6
20260505113836 55 244 0.9 2.6 0.00 0.00 0.00 89 1017.5
20260505113333 54 146 0.0 0.0 0.00 0.00 0.00 92 1017.7
20260505112828 53 155 0.9 0.9 0.00 0.00 0.00 94 1017.7
20260505112326 52 146 0.0 0.9 0.00 0.00 0.00 95 1017.5
20260505111821 51 136 0.0 1.7 0.00 0.00 0.00 95 1017.4
20260505111317 51 154 0.0 0.9 0.00 0.00 0.00 95 1017.3
20260505110813 50 152 0.9 0.9 0.00 0.00 0.00 95 1017.3
20260505110311 49 127 0.0 0.0 0.00 0.00 0.00 95 1017.4
20260505101745 48 133 0.0 0.0 0.00 0.00 0.00 95 1016.6
20260505101241 48 131 0.0 0.0 0.00 0.00 0.00 95 1016.7
20260505100738 48 135 0.0 0.0 0.00 0.00 0.00 95 1016.8
20260505100234 48 135 0.0 0.0 0.00 0.00 0.00 95 1016.4
20260505095729 49 135 0.0 0.0 0.00 0.00 0.00 95 1016.4
20260505095228 48 133 0.0 0.0 0.00 0.00 0.00 95 1016.6
20260505094723 49 133 0.0 0.0 0.00 0.00 0.00 95 1016.5
20260505094220 49 133 0.0 0.0 0.00 0.00 0.00 95 1016.5
20260505093716 49 133 0.0 0.0 0.00 0.00 0.00 95 1016.3
20260505093214 49 131 0.0 0.0 0.00 0.00 0.00 95 1016.6
20260505092710 50 131 0.0 0.0 0.00 0.00 0.00 95 1016.6
20260505092209 50 135 0.0 0.0 0.00 0.00 0.00 95 1016.2
20260505091706 50 135 0.0 0.0 0.00 0.00 0.00 95 1016.4
20260505091204 50 135 0.0 0.0 0.00 0.00 0.00 95 1016.4
20260505090701 50 135 0.0 0.0 0.00 0.00 0.00 95 1016.3
20260505090159 51 135 0.0 0.0 0.00 0.00 0.00 95 1016.0
20260505085656 51 135 0.0 0.0 0.00 0.00 0.00 95 1016.2
20260505085154 51 131 0.0 0.0 0.00 0.00 0.00 95 1016.3
20260505084651 51 128 0.0 0.0 0.00 0.00 0.00 95 1016.0
20260505084150 50 131 0.0 0.0 0.00 0.00 0.00 94 1016.2
20260505083647 50 133 0.0 0.0 0.00 0.00 0.00 94 1016.2
20260505083144 51 131 0.0 0.0 0.00 0.00 0.00 93 1016.2
20260505082639 51 131 0.0 0.0 0.00 0.00 0.00 93 1016.2
20260505082137 51 130 0.0 0.0 0.00 0.00 0.00 93 1016.0
20260505081632 52 135 0.0 0.0 0.00 0.00 0.00 92 1016.0
20260505081131 52 136 0.0 0.0 0.00 0.00 0.00 92 1015.9
20260505080627 52 131 0.0 0.0 0.00 0.00 0.00 92 1016.2
20260505080123 52 131 0.0 0.0 0.00 0.00 0.00 92 1016.1
20260505075620 53 130 0.0 0.0 0.00 0.00 0.00 91 1016.1
20260505075116 53 142 0.0 0.0 0.00 0.00 0.00 91 1016.0
20260505074613 53 136 0.0 0.0 0.00 0.00 0.00 90 1016.1
20260505074110 53 137 0.0 0.0 0.00 0.00 0.00 90 1015.8
20260505073608 52 137 0.0 0.0 0.00 0.00 0.00 89 1016.0
20260505073106 52 131 0.0 0.0 0.00 0.00 0.00 87 1015.9
20260505072601 53 131 0.0 0.0 0.00 0.00 0.00 86 1016.0
20260505072058 54 133 0.0 0.0 0.00 0.00 0.00 86 1015.9
20260505071553 54 134 0.0 0.0 0.00 0.00 0.00 85 1015.9
20260505071052 55 127 0.0 0.0 0.00 0.00 0.00 83 1016.1
20260505070548 55 131 0.0 0.0 0.00 0.00 0.00 82 1016.0
20260505070044 56 132 0.0 0.0 0.00 0.00 0.00 80 1016.0
20260505065540 57 137 0.0 0.9 0.00 0.00 0.00 80 1016.0
20260505065037 57 137 0.0 0.9 0.00 0.00 0.00 79 1015.8
20260505064534 57 264 1.7 1.7 0.00 0.00 0.00 79 1016.0
20260505064033 57 158 0.9 1.7 0.00 0.00 0.00 78 1015.7
20260505063530 58 143 0.9 0.9 0.00 0.00 0.00 77 1015.7
20260505063025 58 194 0.9 1.7 0.00 0.00 0.00 77 1015.9
20260505062522 58 233 2.6 2.6 0.00 0.00 0.00 76 1015.7
20260505062020 58 153 0.9 2.6 0.00 0.00 0.00 76 1015.9
20260505061517 59 211 2.6 2.6 0.00 0.00 0.00 75 1016.2
20260505061015 59 138 1.7 1.7 0.00 0.00 0.00 75 1016.0
20260505060512 59 236 1.7 2.6 0.00 0.00 0.00 75 1016.3
20260505060009 59 223 2.6 2.6 0.00 0.00 0.00 74 1016.1
20260505055504 59 133 1.7 2.6 0.00 0.00 0.00 74 1016.3
20260505055001 59 180 0.9 1.7 0.00 0.00 0.00 74 1016.2
20260505054458 59 220 1.7 1.7 0.00 0.00 0.00 75 1016.5
20260505053956 59 195 1.7 1.7 0.00 0.00 0.00 74 1016.2
20260505053453 59 41 0.9 1.7 0.00 0.00 0.00 73 1016.1
20260505052950 59 153 0.0 0.9 0.00 0.00 0.00 73 1016.2
20260505052447 60 150 0.9 2.6 0.00 0.00 0.00 73 1016.3
20260505051944 60 152 0.9 1.7 0.00 0.00 0.00 73 1016.4
20260505051441 60 181 0.9 1.7 0.00 0.00 0.00 72 1016.4
20260505050939 60 149 0.9 2.6 0.00 0.00 0.00 72 1016.4
20260505050437 61 144 1.7 2.6 0.00 0.00 0.00 71 1016.6
20260505041404 62 325 2.6 4.3 0.00 0.00 0.00 68 1016.4
20260505040901 63 155 1.7 6.1 0.00 0.00 0.00 68 1016.3
20260505040359 63 273 2.6 5.2 0.00 0.00 0.00 68 1016.5
20260505035855 63 118 1.7 4.3 0.00 0.00 0.00 67 1016.7
20260505035351 63 65 2.6 6.1 0.00 0.00 0.00 67 1016.5
20260505034849 63 255 1.7 5.2 0.00 0.00 0.00 67 1016.4
20260505034345 64 307 2.6 4.3 0.00 0.00 0.00 66 1016.5
20260505033843 64 267 4.3 7.0 0.00 0.00 0.00 66 1016.5
20260505033339 64 259 2.6 5.2 0.00 0.00 0.00 65 1016.3
20260505032838 64 338 1.7 6.1 0.00 0.00 0.00 66 1016.4
20260505032334 64 307 3.5 6.1 0.00 0.00 0.00 66 1016.3
20260505031831 64 251 3.5 5.2 0.00 0.00 0.00 65 1016.6
20260505031327 64 332 5.2 7.0 0.00 0.00 0.00 65 1016.7
20260505030825 64 221 0.9 5.2 0.00 0.00 0.00 65 1016.7
20260505030321 64 79 2.6 4.3 0.00 0.00 0.00 66 1016.8
20260505025816 64 289 1.7 4.3 0.00 0.00 0.00 65 1016.7
20260505025314 65 259 4.3 5.2 0.00 0.00 0.00 65 1016.3
20260505024812 65 296 3.5 8.7 0.00 0.00 0.00 65 1016.5
20260505024310 65 297 3.5 7.8 0.00 0.00 0.00 64 1016.3
20260505023807 65 276 3.5 7.0 0.00 0.00 0.00 64 1016.5
20260505023304 65 160 1.7 7.0 0.00 0.00 0.00 64 1016.4
20260505022801 65 249 3.5 4.3 0.00 0.00 0.00 64 1016.5
20260505022258 65 226 2.6 7.0 0.00 0.00 0.00 63 1016.2
20260505021755 65 230 1.7 5.2 0.00 0.00 0.00 63 1016.3
20260505021251 66 320 3.5 5.2 0.00 0.00 0.00 63 1016.3
20260505020747 66 218 2.6 8.7 0.00 0.00 0.00 63 1016.2
20260505020243 66 273 4.3 6.1 0.00 0.00 0.00 63 1016.2
20260505015740 66 231 3.5 7.8 0.00 0.00 0.00 62 1016.2
20260505015237 66 245 2.6 7.0 0.00 0.00 0.00 62 1016.2
20260505014734 66 268 6.1 7.0 0.00 0.00 0.00 62 1016.2
20260505014231 67 249 2.6 6.1 0.00 0.00 0.00 62 1015.9
20260505013728 67 247 5.2 8.7 0.00 0.00 0.00 61 1016.2
20260505013225 67 301 4.3 7.8 0.00 0.00 0.00 61 1016.0
20260505012723 67 268 1.7 4.3 0.00 0.00 0.00 63 1016.1
20260505012220 67 200 1.7 8.7 0.00 0.00 0.00 62 1015.7
20260505011716 68 290 6.1 8.7 0.00 0.00 0.00 61 1015.9
20260505011214 68 318 2.6 6.1 0.00 0.00 0.00 62 1015.7
20260505010708 68 272 5.2 8.7 0.00 0.00 0.00 62 1015.5
20260505010205 68 312 7.8 8.7 0.00 0.00 0.00 61 1015.8
20260505005702 68 306 3.5 6.1 0.00 0.00 0.00 62 1015.6
20260505005159 69 276 0.9 4.3 0.00 0.00 0.00 61 1015.3
20260505004656 69 282 6.1 7.0 0.00 0.00 0.00 60 1015.2
20260505004152 69 8 1.7 6.1 0.00 0.00 0.00 60 1015.2
20260505003649 70 255 2.6 7.0 0.00 0.00 0.00 60 1015.0
20260505003147 70 284 5.2 7.0 0.00 0.00 0.00 59 1015.2
20260505002643 70 247 6.1 8.7 0.00 0.00 0.00 58 1015.2
20260505002141 71 218 3.5 12.2 0.00 0.00 0.00 57 1014.9
20260505001638 71 238 4.3 8.7 0.00 0.00 0.00 55 1015.0
20260505001136 71 265 4.3 6.1 0.00 0.00 0.00 53 1015.0
20260505000633 72 275 2.6 8.7 0.00 0.00 0.00 51 1014.9
20260505000131 72 179 2.6 4.3 0.00 0.00 0.00 45 1014.8
20260504235626 72 256 0.9 2.6 0.00 0.00 0.00 44 1014.7
20260504235123 72 136 0.9 1.7 0.00 0.00 0.00 44 1014.5
20260504234620 73 292 1.7 2.6 0.00 0.00 0.00 43 1014.6
20260504234118 73 157 2.6 2.6 0.00 0.00 0.00 43 1014.4
20260504233614 74 239 2.6 7.0 0.00 0.00 0.00 42 1014.4
20260504233109 74 314 2.6 4.3 0.00 0.00 0.00 41 1014.5
20260504232607 75 163 0.9 2.6 0.00 0.00 0.00 41 1014.2
20260504232104 75 323 2.6 4.3 0.00 0.00 0.00 40 1014.4
20260504231601 75 175 1.7 4.3 0.00 0.00 0.00 40 1014.1
20260504231057 76 249 1.7 5.2 0.00 0.00 0.00 39 1014.2
20260504230553 76 302 3.5 5.2 0.00 0.00 0.00 38 1014.1
20260504230052 76 288 2.6 7.0 0.00 0.00 0.00 38 1014.2
20260504225549 77 336 3.5 5.2 0.00 0.00 0.00 38 1014.2
20260504225046 77 308 5.2 11.3 0.00 0.00 0.00 37 1014.2
20260504224543 77 272 7.0 9.6 0.00 0.00 0.00 37 1014.0
20260504224040 77 286 3.5 7.0 0.00 0.00 0.00 38 1014.1
20260504223537 77 316 3.5 5.2 0.00 0.00 0.00 37 1014.0
20260504223032 77 141 2.6 9.6 0.00 0.00 0.00 36 1014.1
20260504222530 77 275 2.6 8.7 0.00 0.00 0.00 36 1014.2
20260504222027 78 276 2.6 6.1 0.00 0.00 0.00 37 1014.2
20260504221524 78 247 1.7 6.1 0.00 0.00 0.00 37 1014.3
20260504221021 78 336 4.3 7.8 0.00 0.00 0.00 35 1014.2
20260504220517 78 255 6.1 12.2 0.00 0.00 0.00 36 1014.2
20260504220015 78 275 7.0 13.0 0.00 0.00 0.00 36 1014.1
20260504215511 78 264 2.6 7.8 0.00 0.00 0.00 36 1014.4
20260504215008 78 245 1.7 8.7 0.00 0.00 0.00 36 1014.0
20260504214504 78 140 2.6 7.0 0.00 0.00 0.00 35 1014.1
20260504214000 78 226 1.7 7.8 0.00 0.00 0.00 36 1014.0
20260504213456 78 221 2.6 6.1 0.00 0.00 0.00 35 1014.2
20260504212955 79 8 3.5 13.9 0.00 0.00 0.00 35 1014.1
20260504212450 79 296 3.5 6.1 0.00 0.00 0.00 36 1014.2
20260504211948 78 178 3.5 7.8 0.00 0.00 0.00 36 1014.3
20260504211444 78 285 2.6 6.1 0.00 0.00 0.00 36 1014.1
20260504210942 78 235 3.5 7.8 0.00 0.00 0.00 36 1014.1
20260504210438 79 259 8.7 13.0 0.00 0.00 0.00 34 1014.3
20260504205935 79 243 5.2 7.8 0.00 0.00 0.00 34 1014.2
20260504205433 78 237 3.5 7.8 0.00 0.00 0.00 35 1014.1
20260504204931 79 261 5.2 13.0 0.00 0.00 0.00 34 1014.2
20260504204429 79 166 3.5 7.0 0.00 0.00 0.00 34 1014.3
20260504203928 79 304 3.5 6.1 0.00 0.00 0.00 35 1014.6
20260504203425 79 323 4.3 7.8 0.00 0.00 0.00 35 1014.5
20260504202921 80 347 6.1 7.8 0.00 0.00 0.00 34 1014.5
20260504202418 79 345 3.5 7.0 0.00 0.00 0.00 35 1014.5
20260504201914 79 317 2.6 6.1 0.00 0.00 0.00 35 1014.7
20260504201412 78 301 7.0 8.7 0.00 0.00 0.00 34 1014.6
20260504200909 78 341 3.5 11.3 0.00 0.00 0.00 36 1014.7
20260504200406 78 258 3.5 6.1 0.00 0.00 0.00 35 1014.4